RH
29 32 34 50 72 56 53 65 62 100 88 53 46 40 34 38 32 30 62 55 72 61 38 18 18 18 24 41 76 76 92 78 47 32 26 21 21 19 17 19 20 19 20 35 57 59 58 38 26
54 54 34 41 51 49 50 54 29 41 82 70 41 52 50 42 45 40 38 41 39 29 22 22 24 22 22 32 94 100 100 76 56 58 39 31 24 18 18 19 22 20 21 25 49 66 76 58 44
52 50 44 35 31 30 43 44 44 27 24 35 40 59 75 54 46 44 51 50 40 32 32 34 26 24 23 24 73 99 89 81 71 60 51 35 29 22 25 22 27 26 22 23 38 70 83 70 51
67 62 57 52 36 25 26 34 29 29 30 38 34 39 71 86 78 64 70 58 39 40 44 30 35 33 26 22 45 58 58 72 66 64 57 45 34 30 25 27 26 24 25 26 28 61 81 84 69
37 32 37 68 68 50 38 42 44 44 34 39 37 30 65 90 92 76 50 37 42 44 38 42 37 29 25 22 23 31 41 49 57 60 52 47 41 31 28 30 29 25 29 30 30 36 57 82 81
34 32 34 58 76 61 58 76 71 53 38 45 26 28 82 100 76 51 46 46 49 43 42 22 26 26 22 19 20 22 27 31 42 54 57 57 39 34 29 42 40 30 32 31 28 32 35 40 41
56 46 53 61 73 76 98 89 64 51 54 58 25 26 77 48 60 58 41 45 57 53 22 22 25 20 20 18 19 28 34 31 36 48 52 41 36 33 34 37 46 49 37 35 40 41 44 42 45
48 37 38 32 75 83 100 95 98 98 98 100 58 52 50 55 54 38 42 67 60 50 36 34 30 29 26 24 26 28 32 40 55 53 49 40 39 43 40 49 71 65 49 46 42 42 36 41 49
46 38 32 56 62 87 95 79 100 100 97 81 64 38 30 92 89 78 70 64 64 54 45 49 49 37 31 32 29 36 52 90 92 100 100 100 43 43 59 70 91 98 87 71 51 58 58 71 63
72 47 36 51 83 98 79 71 48 72 56 58 41 34 28 95 100 100 100 94 87 88 70 60 43 35 37 38 38 38 52 65 100 99 64 93 100 95 78 85 51 46 64 48 61 68 63 75 72
88 75 55 44 33 23 22 20 22 27 33 45 43 38 28 89 100 100 100 100 100 98 60 42 39 37 37 43 43 47 51 58 46 54 65 87 89 100 100 100 100 100 99 99 83 94 83 76 91
67 56 42 45 35 26 24 26 24 24 25 31 44 37 43 68 100 95 99 100 94 58 38 37 36 33 37 44 54 53 58 62 64 45 37 47 51 72 100 100 100 100 100 98 97 100 99 100 100
65 49 39 35 36 35 32 34 31 27 28 37 49 39 38 96 100 100 99 85 67 51 45 38 31 30 30 45 59 56 51 48 48 55 54 36 31 41 73 100 100 98 100 100 100 100 100 95 99
67 66 51 38 44 35 36 35 29 26 35 56 46 46 48 99 100 95 89 96 68 51 42 33 29 29 28 26 26 26 33 47 48 47 42 41 34 31 33 38 48 63 62 70 94 100 100 99 94
69 74 54 65 64 40 39 34 33 25 51 48 46 42 48 100 91 39 68 71 61 60 45 39 42 42 40 41 41 37 29 28 32 42 58 92 97 64 56 48 41 32 41 71 70 88 92 83 75
86 90 72 84 56 49 43 42 42 50 57 54 37 44 56 91 100 70 77 69 64 58 58 45 55 58 58 50 43 50 49 45 35 29 34 39 46 63 81 95 88 100 76 47 57 70 65 50 49
100 94 67 71 68 55 39 48 57 62 64 75 63 86 91 100 100 97 81 72 69 65 64 67 62 61 51 53 50 60 53 54 55 44 38 37 37 44 52 47 45 51 73 83 84 82 75 54 32
96 84 85 85 73 57 49 95 75 80 91 87 88 100 100 98 100 80 82 92 91 80 45 39 45 58 60 67 73 67 67 69 62 58 52 45 41 40 46 56 56 55 50 47 49 59 57 44 36
100 82 89 100 85 86 78 43 100 100 72 63 66 91 80 65 81 100 100 94 44 46 44 47 75 80 83 89 84 89 90 82 80 73 65 56 47 47 44 39 49 58 67 64 44 43 61 62 52
68 73 100 100 100 95 86 58 70 93 89 79 63 47 39 34 30 32 37 44 57 51 49 49 67 80 92 96 99 96 88 89 89 85 67 62 63 60 52 49 46 38 38 52 70 80 78 82 70
84 89 100 99 98 79 92 96 78 74 88 94 61 55 56 52 54 59 57 67 83 74 70 78 74 76 87 100 100 100 100 99 91 72 67 64 62 56 49 44 45 42 35 32 34 38 41 52 52
86 90 96 77 94 100 100 79 99 100 85 70 65 74 75 76 67 55 52 62 72 81 91 96 86 88 90 100 100 100 100 76 64 65 66 62 53 43 34 27 24 24 25 25 26 25 24 27 28
96 85 87 79 84 99 98 91 100 100 100 100 94 98 100 100 85 71 80 78 85 90 79 93 96 89 99 100 100 91 61 62 58 53 47 39 33 30 24 18 16 15 17 18 20 20 17 15 15
95 94 97 100 100 100 100 100 91 81 97 88 92 98 100 92 100 100 100 100 97 92 99 94 96 96 100 100 80 66 54 52 48 44 33 29 24 16 16 17 18 19 17 14 14 14 13 13 13
100 100 100 100 100 100 100 100 85 79 82 77 83 85 79 83 94 100 98 96 97 96 94 90 93 98 100 83 62 60 56 52 46 36 30 22 15 15 15 16 17 18 17 14 12 12 13 12 12
100 100 92 99 100 100 100 88 97 98 96 98 84 89 96 82 88 86 98 93 100 97 84 92 94 93 76 68 62 61 56 53 41 32 25 16 15 14 13 15 19 28 21 16 14 13 12 12 12
100 99 100 100 100 97 95 100 100 100 99 86 97 100 100 84 79 89 85 96 89 81 90 93 80 72 62 51 51 55 62 51 41 33 22 18 16 12 12 17 22 31 28 22 18 16 15 14 13
97 100 100 100 100 100 100 100 100 100 100 99 100 89 82 100 100 100 100 100 94 82 81 76 66 62 54 50 59 65 64 52 36 30 23 19 16 12 13 16 23 30 26 26 26 23 21 18 17
100 100 100 100 100 100 100 100 100 100 100 100 97 77 76 95 90 95 95 87 81 78 75 53 64 61 60 63 65 66 59 44 35 25 22 20 15 11 15 16 19 21 22 28 32 28 29 30 25
99 98 99 99 100 100 100 100 100 100 100 100 89 100 100 100 94 89 77 68 80 78 62 61 58 69 73 65 66 73 54 36 27 21 19 18 14 13 15 14 17 21 25 33 33 34 38 50 56
Wind_Speed
33 37 39 37 40 44 41 33 30 40 40 37 37 32 36 38 34 29 31 36 37 43 41 42 38 35 34 35 41 45 46 48 49 46 44 42 42 43 41 41 41 38 38 37 36 34 32 32 32
39 43 40 43 42 43 41 44 36 35 42 43 38 35 37 39 38 32 33 39 44 44 42 46 40 35 38 38 39 45 49 52 51 49 47 44 44 43 45 42 40 39 36 37 36 35 34 32 31
42 41 40 42 46 43 42 45 47 42 43 42 38 37 37 38 40 36 37 41 43 42 47 44 37 37 39 38 40 46 50 50 49 48 49 47 46 46 47 43 39 37 35 34 35 36 36 35 33
40 42 45 48 45 42 39 43 47 48 47 39 39 36 41 41 41 38 41 45 44 47 44 35 40 41 42 40 42 47 50 50 49 48 47 48 47 47 46 41 38 35 33 35 33 35 36 36 37
44 49 47 46 46 39 36 48 48 46 43 46 45 38 43 41 41 43 42 40 41 39 37 42 46 43 39 38 42 46 48 48 47 47 46 47 47 46 42 38 34 33 33 33 34 36 37 37 37
52 46 44 45 44 40 39 50 50 44 48 50 42 35 37 47 44 41 42 40 39 39 41 38 36 37 34 34 36 41 44 45 43 43 44 45 46 43 39 33 33 32 30 30 30 31 33 35 36
43 45 47 47 45 44 44 45 48 47 48 53 36 32 40 45 42 41 39 40 40 41 39 39 39 37 38 36 38 40 42 42 41 41 42 43 43 41 41 35 34 35 32 31 29 28 28 29 31
46 50 51 50 44 44 49 50 50 48 50 52 44 39 40 44 41 36 39 41 43 45 47 45 42 42 43 38 38 40 39 42 42 43 44 45 46 45 41 41 38 36 35 36 31 29 28 30 32
47 50 49 49 50 45 45 41 49 43 44 44 43 44 42 42 48 42 39 45 48 48 49 51 50 49 43 42 42 41 40 47 49 51 50 49 47 46 41 41 42 40 41 39 39 37 38 39 36
55 53 48 52 51 56 68 63 64 61 56 52 47 47 42 40 48 52 49 48 50 53 51 49 49 46 46 46 47 46 44 44 48 52 48 48 49 47 48 48 46 49 51 48 46 42 42 36 31
59 59 59 60 61 60 65 61 55 60 57 53 51 46 40 44 45 49 53 52 51 46 45 47 50 51 51 50 49 50 48 50 49 53 55 57 48 46 48 54 52 50 48 46 46 46 43 40 37
57 61 59 59 67 61 59 59 55 59 54 52 47 38 38 47 48 46 45 43 40 46 51 53 55 53 51 51 51 51 53 55 58 53 51 56 56 53 43 48 44 45 50 48 46 47 40 37 36
67 67 62 61 61 62 60 62 60 56 51 47 44 34 37 44 47 45 44 45 47 50 54 54 51 49 47 48 53 54 54 55 58 61 61 56 57 57 54 57 61 57 53 48 46 41 36 33 26
68 69 71 64 61 63 61 57 55 55 48 47 42 37 41 50 49 44 46 47 50 53 54 53 52 50 49 51 49 54 57 57 58 59 60 60 59 61 61 62 59 58 61 62 54 49 49 55 49
68 65 67 63 63 59 57 58 55 51 47 48 41 38 41 50 55 50 48 50 54 57 56 58 61 56 53 53 55 56 56 54 57 64 66 71 71 75 74 73 68 63 65 65 65 66 69 67 65
68 63 63 65 64 53 56 55 52 46 47 48 41 43 45 55 59 54 52 53 54 56 58 57 59 61 62 65 66 63 60 62 63 61 63 69 70 72 77 77 81 80 78 71 70 73 76 72 69
66 66 67 64 59 52 52 51 46 45 45 52 42 49 50 56 62 54 55 56 56 56 58 63 65 67 70 70 70 68 71 68 67 68 67 66 69 72 74 74 75 81 82 84 85 85 84 82 72
65 63 65 60 56 53 44 50 51 47 44 46 43 48 47 48 53 51 55 56 58 59 62 65 68 71 73 74 74 77 75 73 74 74 74 75 73 73 76 77 80 82 84 86 86 88 89 88 83
61 59 59 61 61 54 53 54 51 55 49 48 45 40 51 43 48 54 56 56 59 59 66 70 72 74 75 78 81 79 77 79 80 83 82 83 82 78 78 78 82 86 87 88 85 87 89 88 85
61 60 59 60 61 57 50 48 48 56 60 57 55 61 62 58 56 57 58 61 66 66 69 73 75 76 79 83 85 85 85 85 86 89 91 89 84 85 85 87 87 87 88 93 96 97 97 97 94
58 57 63 57 62 58 57 55 54 60 60 57 55 60 61 64 61 61 65 66 69 72 75 78 79 82 84 86 87 88 89 92 96 98 93 91 91 93 94 92 93 94 95 95 95 95 96 98 98
61 61 67 61 59 63 66 55 57 61 65 62 63 64 65 66 67 71 71 70 73 75 76 80 83 85 87 88 89 92 101 104 100 96 95 99 103 106 105 101 97 96 97 98 99 99 97 95 92
65 64 66 65 64 67 67 65 56 66 64 61 61 62 63 72 71 71 72 76 76 78 80 83 85 89 89 91 96 104 102 98 99 101 105 107 106 104 102 95 90 89 91 94 98 99 97 94 94
77 71 67 67 71 69 68 73 60 71 71 65 69 69 72 73 75 75 77 78 81 83 84 85 89 92 93 100 104 103 103 106 107 108 108 106 100 89 82 78 79 81 84 86 88 91 91 91 90
80 75 73 74 77 70 76 82 67 73 74 72 71 75 80 80 81 83 85 85 86 87 89 92 94 97 101 104 105 105 108 110 109 109 105 100 88 77 71 68 70 75 80 80 79 80 81 81 81
85 82 79 80 80 76 77 77 73 74 74 75 75 79 85 86 86 87 87 87 90 91 95 96 100 102 106 106 106 109 112 111 109 105 100 90 77 70 67 63 63 66 71 70 69 69 68 70 71
86 83 82 88 86 81 79 81 81 81 82 82 82 84 88 91 91 93 97 95 96 99 101 104 106 108 106 108 109 112 112 110 106 100 92 80 72 67 62 59 59 60 62 61 59 57 58 60 62
95 91 93 94 91 90 83 83 87 88 88 90 92 92 92 94 98 98 97 99 102 105 107 108 110 108 110 111 112 113 112 109 100 94 84 74 69 66 60 57 54 55 55 52 51 50 51 53 56
99 99 99 100 98 93 90 89 89 95 97 100 100 97 99 101 104 103 103 106 108 108 111 114 110 111 112 115 115 114 112 105 96 87 78 72 67 62 58 54 51 52 52 48 47 44 46 48 49
104 105 107 105 99 101 98 95 93 96 106 107 105 103 105 106 110 110 110 111 111 114 111 113 114 114 116 118 116 115 110 101 90 80 72 67 64 59 54 50 46 47 47 44 44 44 43 43 43
Wind_Direction
300 307 312 301 294 298 305 309 317 305 302 302 306 309 303 294 293 297 293 288 291 295 291 299 299 296 289 287 285 287 288 290 290 291 291 294 294 294 297 297 295 290 290 285 280 280 283 283 283
294 298 303 303 296 299 304 306 307 305 298 303 311 305 300 290 290 286 288 290 291 291 290 297 293 290 291 285 282 284 286 289 289 291 291 287 287 291 293 290 290 290 289 290 283 279 280 279 279
289 296 297 294 295 300 298 304 300 305 300 300 304 298 294 286 284 285 285 289 290 289 290 292 291 291 297 290 285 287 287 288 290 291 290 287 289 290 294 286 285 288 287 288 284 280 278 276 280
294 297 294 292 296 304 301 300 303 299 299 304 302 305 289 282 283 282 284 287 285 290 292 281 290 298 292 289 286 284 285 285 285 289 287 287 288 291 293 287 286 283 283 286 285 281 281 280 280
299 298 299 296 293 299 297 286 298 296 294 299 301 305 291 281 277 280 287 288 286 286 281 288 294 292 288 289 288 286 285 285 286 289 286 287 292 294 292 287 282 282 283 283 284 283 283 283 282
296 297 295 297 297 298 295 288 294 299 296 292 302 304 290 273 279 284 286 285 283 282 289 291 291 287 282 291 303 296 291 291 291 291 289 291 293 295 292 285 287 285 286 287 285 282 284 284 287
294 295 295 295 295 297 283 290 290 292 290 293 301 300 283 286 284 283 281 283 281 283 286 286 291 283 291 293 298 301 296 296 295 295 297 294 297 293 292 289 289 288 287 287 285 281 283 283 284
287 294 296 298 293 292 288 292 292 287 290 292 293 284 286 285 280 284 285 280 280 287 285 288 289 288 291 289 292 294 293 294 295 295 296 297 295 296 293 290 287 287 289 286 285 283 281 288 283
285 288 295 298 296 289 284 287 293 290 294 295 298 294 293 279 276 276 278 278 285 285 284 289 291 295 289 290 292 291 287 290 291 293 293 296 293 292 293 289 284 285 287 288 283 281 283 291 286
284 284 287 285 281 280 288 290 292 288 292 291 290 292 295 280 281 275 276 279 278 283 283 286 291 293 293 292 290 289 284 286 285 285 289 292 297 295 291 288 285 285 289 289 285 285 281 282 282
282 282 285 291 290 289 287 288 288 291 290 288 289 290 291 278 280 279 278 278 283 279 286 291 292 295 294 291 289 285 281 279 281 282 285 286 282 286 293 291 283 279 283 287 283 279 279 279 277
289 289 290 291 291 291 290 290 289 294 292 289 281 286 282 278 287 285 284 277 281 289 293 295 294 295 293 289 288 289 282 281 280 279 280 282 282 280 286 275 279 275 284 278 281 280 278 278 278
289 289 290 289 289 291 288 289 291 290 292 283 277 280 271 271 278 278 278 285 288 290 293 295 296 296 296 294 291 288 285 284 283 280 281 279 277 276 273 263 272 270 271 280 277 255 264 263 259
287 288 288 289 287 285 288 289 290 290 287 276 275 273 268 275 275 276 281 284 288 291 293 295 295 295 298 299 300 296 288 285 282 280 278 277 277 276 272 270 269 274 273 272 266 256 259 263 252
286 285 286 284 280 284 288 289 286 290 278 271 273 275 274 270 272 272 276 281 288 292 291 292 297 297 300 299 302 302 301 299 293 281 280 280 279 279 278 276 273 266 264 266 267 265 266 265 257
282 282 281 278 282 285 283 282 285 282 276 274 275 279 276 273 276 277 282 289 292 295 296 299 300 299 300 303 304 304 304 303 302 303 292 273 271 272 271 274 276 275 271 267 266 267 269 266 260
277 276 278 281 281 279 279 274 276 277 275 277 283 283 278 274 278 287 291 293 295 295 299 303 303 302 303 302 303 304 305 304 304 304 305 297 278 271 271 273 269 268 270 270 267 268 268 266 255
272 275 279 277 273 276 274 271 273 277 278 279 283 284 284 282 288 290 290 291 293 297 302 305 304 303 303 302 302 303 304 303 304 303 303 301 294 280 273 268 268 268 265 267 266 266 264 264 263
273 276 276 272 269 271 271 274 281 281 273 271 269 271 288 289 290 291 291 291 298 296 303 301 299 301 302 301 302 303 301 302 302 303 300 301 297 288 281 277 271 266 264 262 261 262 263 263 261
273 275 277 272 269 274 275 273 265 272 276 274 275 275 276 280 286 286 288 293 296 298 300 305 303 302 300 300 301 301 300 300 301 301 300 298 291 287 284 280 278 274 269 263 260 258 258 260 260
270 273 276 274 276 280 276 274 274 273 271 276 281 281 283 286 287 288 288 293 294 298 300 303 304 302 301 300 300 299 299 300 300 300 297 293 291 288 285 282 278 275 271 267 263 260 258 257 257
271 273 274 276 277 278 279 281 279 270 268 271 275 278 282 284 284 286 290 292 294 296 297 299 301 301 301 300 300 299 299 300 300 297 295 295 293 292 289 285 280 274 269 266 264 262 261 260 258
277 274 272 275 278 276 277 279 277 273 273 275 280 281 283 283 286 290 293 293 293 294 297 299 299 301 301 299 298 299 300 299 297 297 293 292 292 290 288 283 278 273 268 264 262 262 262 261 260
277 276 277 275 272 274 275 275 278 277 274 278 281 281 282 285 290 292 292 292 292 295 295 297 298 299 298 298 299 297 298 300 299 298 297 295 295 291 286 281 277 272 268 265 263 263 263 263 262
276 276 273 272 273 276 272 274 277 276 279 280 280 281 282 286 288 289 291 292 294 295 296 297 298 297 297 298 299 298 300 302 301 300 299 298 296 292 286 280 274 270 268 267 266 264 263 262 260
274 277 280 278 275 273 276 280 277 276 276 280 283 284 284 286 289 290 293 294 294 294 296 297 297 297 298 300 301 302 303 303 303 302 301 299 296 292 287 281 274 270 270 269 268 266 264 262 260
275 275 273 274 277 278 279 278 277 280 282 282 279 281 283 286 289 291 291 294 293 295 296 297 298 299 300 303 303 305 306 306 305 304 303 299 296 292 287 280 275 271 270 270 268 266 262 259 256
272 273 275 276 276 278 279 277 280 281 281 281 282 282 284 287 289 290 290 291 292 295 296 297 298 300 302 304 306 307 307 306 305 305 302 298 295 291 288 283 277 272 273 272 268 263 259 257 255
268 270 270 272 275 276 278 277 276 282 283 281 282 284 285 287 288 289 290 292 295 296 295 298 300 301 304 306 307 307 307 306 305 303 300 296 293 290 288 283 277 273 272 269 265 259 256 253 254
265 267 270 270 271 271 274 277 278 279 279 281 284 286 287 287 288 290 291 293 294 294 297 299 301 302 304 306 307 307 306 305 304 302 297 294 292 290 288 284 276 271 269 262 259 255 246 245 247